Tracking 18840 objects as of 20-November-2017
HD Live streaming from Space Station
objects crossing your sky now

FENGYUN 1C DEB

Track FENGYUN 1C DEB now!
10-day predictions


NORAD ID: 31254
Int'l Code: 1999-025BML
Perigee: 681.9 km
Apogee: 919.0 km
Inclination: 98.8 °
Period: 100.7 minutes
Semi major axis: 7171 km
RCS: 0.0099 m2 (small)
Launch date: May 10, 1999
Source: People's Republic of China (PRC)
Launch site: Taiyaun Space Center, China (TSC)

Note: This is SATELLITE DEBRIS
aabbcc
Your satellite tracking list
Your tracking list is empty




NASA's NSSDC Master Catalog

Two Line Element Set (TLE):
1 31254U 99025BML 17323.30192338 +.00000244 +00000-0 +99154-4 0  9997
2 31254 098.8219 340.2202 0165321 224.0695 194.7472 14.29534599553821
Source of the keplerian elements: AFSPC